OpenBCM V1.08-5-g2f4a (Linux)

Packet Radio Mailbox

IZ3LSV

[San Dona' di P. JN]

 Login: GUEST





  
I0OJJ  > KEPS     09.08.25 02:40l 330 Lines 15606 Bytes #142 (0) @ AMSAT
BID : ORB25221.1
Read: GUEST
Subj: 2Line Orbital Elements 25221.AMSAT
Path: IZ3LSV<IK6IHL<IK7NXU<HB9ON<HB9ON<PI8ZTM<VK2IO<VK2RZ<IR0AAB<I0OJJ<
      I0OJJ
Sent: 250809/0025z @:I0OJJ.ITA.EU [Rome] obcm1.08-10-g596e

>From i0ojj%i0ojj.ita.eu@i0ojj.ampr.org Sat Aug  9 02:27:06 2025
Received: from i0ojj.ampr.org by i0ojj.ampr.org (JNOS2.0p.8) with SMTP
	id AA17038741 ; Sat, 09 Aug 2025 02:27:06 +0200
Message-Id: <ORB25221.1@obcm.bbs>
>From: i0ojj@i0ojj.ita.eu
X-JNOS-User-Port: Telnet   (obcm @ 44.134.109.10)  -> Sending message

From: I0OJJ @ I0OJJ.ITA.EU (Gustavo)
To:   KEPS @ AMSAT
X-Info: This message was generated automatically


QST de W1STR

AMSAT Orbital Elements for Amateur Satellites in TLE Format
>From Orbital Analysis Office
New England Sci-Tech STEM Education Center
Natick, MA August 09, 2025
To all radio amateurs


These element sets describe the orbits of various satellites 
in use by the amateur radio community. For details see:
www.amsat.org/keplerian-elements-formats/

A daily update of element sets is available at:
www.amsat.org/tle/daily-bulletin.txt
or without bulletin text:
www.amsat.org/tle/dailytle.txt


AO-07
1 07530U 74089B   25220.51840537 -.00000028  00000-0  11791-3 0  9990
2 07530 101.9956 225.4237 0012316   9.7824 159.3309 12.53690677321334
UO-11
1 14781U 84021B   25220.32404258  .00001184  00000-0  12989-3 0  9991
2 14781  97.7590 185.5307 0008910 131.6102 228.5880 14.89532100210538
AO-27
1 22825U 93061C   25220.42780020  .00000079  00000-0  47303-4 0  9999
2 22825  98.7330 282.2704 0007376 301.6242  58.4220 14.30815668662273
FO-29
1 24278U 96046B   25220.56610952  .00000014  00000-0  50100-4 0  9998
2 24278  98.5667 106.5469 0349798 187.0214 172.5953 13.53251388430884
NOAA-15
1 25338U 98030A   25220.83190726  .00000217  00000-0  10680-3 0  9996
2 25338  98.5337 244.5077 0010333 176.2886 183.8373 14.27008940416992
GO-32
1 25397U 98043D   25220.54342616  .00000054  00000-0  43324-4 0  9991
2 25397  98.9753 200.9277 0002160  60.4147 299.7246 14.24327774406827
ISS
1 25544U 98067A   25220.86474332  .00008572  00000-0  15581-3 0  9993
2 25544  51.6350  45.9743 0001462 170.5230 189.5787 15.50398744523332
NO-44
1 26931U 01043C   25220.58189753  .00000105  00000-0  70292-4 0  9996
2 26931  67.0528 332.7005 0006588 276.4734  83.5618 14.31759317245699
SO-50
1 27607U 02058C   25220.62210918  .00000845  00000-0  12202-3 0  9994
2 27607  64.5537  15.1745 0062685 321.1151  38.5453 14.81768009218124
CO-55
1 27844U 03031E   25220.61474511  .00000267  00000-0  13502-3 0  9991
2 27844  98.6772 228.1166 0010015  20.5682 339.5898 14.24035755147184
CO-57
1 27848U 03031J   25220.52101801  .00000229  00000-0  12013-3 0  9998
2 27848  98.6799 227.9841 0010238  37.3317 322.8571 14.23364925146895
RS-22
1 27939U 03042A   25220.82129571  .00001129  00000-0  18619-3 0  9996
2 27939  98.3332  31.7491 0011508 173.0595 298.6032 14.72476316169692
CO-58
1 28895U 05043F   25220.37342607  .00001389  00000-0  23343-3 0  9996
2 28895  98.2573   5.5014 0015615 115.8379 244.4439 14.71186723 55735
CO-65
1 32785U 08021C   25220.58938901  .00004534  00000-0  32417-3 0  9996
2 32785  97.7899 192.2313 0010091  21.4285 338.7361 15.04944322938106
CO-66
1 32791U 08021J   25219.91334486  .00011107  00000-0  51939-3 0  9990
2 32791  97.7296 201.3403 0002459   2.3642 357.7603 15.19947650939586
RS-30
1 32953U 08025A   25220.84167308  .00000014  00000-0  29007-4 0  9992
2 32953  82.5037 189.7034 0017924 275.3583  84.5452 12.43166974781015
NOAA-19
1 33591U 09005A   25220.80118940  .00000073  00000-0  63067-4 0  9993
2 33591  98.9939 285.8337 0013653 189.3688 170.7231 14.13393557850619
SRMSAT
1 37841U 11058D   25220.49488156  .00000380  00000-0  62556-4 0  9993
2 37841  19.9708 151.9723 0011664   4.8490 150.2154 14.11450834713583
ZACUBE-1
1 39417U 13066B   25220.81494892  .00003386  00000-0  29314-3 0  9998
2 39417  97.7824 177.5405 0043103 208.7376 151.1471 14.97117075633921
Delfi-N3xt
1 39428U 13066N   25220.71812586  .00004788  00000-0  48242-3 0  9991
2 39428  97.8313 137.7139 0084333 161.2309 199.2050 14.88971957628206
GOMX-1
1 39430U 13066Q   25220.81933782  .00001712  00000-0  27064-3 0  9990
2 39430  97.6780  75.7751 0132175   0.3027 359.8235 14.67850814624248
LO-74
1 39440U 13066AA  25220.84418693  .00004644  00000-0  46693-3 0  9999
2 39440  97.8509 165.0076 0060980 342.7277  17.1865 14.90344401631615
AO-73
1 39444U 13066AE  25220.34450298  .00003990  00000-0  29577-3 0  9990
2 39444  97.7858 182.5284 0041534 180.8869 179.2289 15.03000344632567
DTUSAT-2
1 40030U 14033W   25220.38471338  .00004875  00000-0  31308-3 0  9998
2 40030  98.0592 195.1383 0008161 205.9578 154.1241 15.08940003605418
EO-80
1 40032U 14033Y   25220.86610175  .00007481  00000-0  47664-3 0  9995
2 40032  98.0477 195.2146 0009574 147.0106 213.1720 15.09022987605985
LILACSAT-2
1 40908U 15049K   25220.79758636  .00012092  00000-0  30336-3 0  9994
2 40908  97.5041 242.6429 0007118 310.2877  49.7746 15.40153445547491
IO-86
1 40931U 15052B   25151.18580175  .00001241  00000-0  78118-4 0  9996
2 40931   6.0006  24.0987 0012733 338.8432  21.1169 14.78805930523159
Horyu-4
1 41340U 16012D   25220.63685281  .00022203  00000-0  54866-3 0  9993
2 41340  30.9963  87.3762 0007580 328.6309  31.3885 15.39211605522042
Lapan A3
1 41603U 16040E   25220.86523585  .00003939  00000-0  13690-3 0  9994
2 41603  97.1387 223.1251 0012513  60.1116 300.1367 15.30226913507008
CAS-2T
1 41847U 16066G   25220.84577749  .00000754  00000-0  11636-3 0  9991
2 41847  98.4175 294.7757 0345444 356.3713   3.4979 14.43641488459714
CAS-4B
1 42759U 17034B   25220.75670312  .00100709  00000-0  73334-3 0  9994
2 42759  43.0054 321.1251 0022479 350.7029   9.3421 15.71923424452042
CAS-4A
1 42761U 17034D   25220.72976716  .00112046  00000-0  74657-3 0  9997
2 42761  43.0090 317.6264 0023380 355.6827   4.3837 15.73916345452076
TechnoSat
1 42829U 17042E   25220.54087195  .00003423  00000-0  26430-3 0  9999
2 42829  97.3954  26.3872 0017949  78.3262 281.9976 15.02058187439724
AO-91
1 43017U 17073E   25220.62397877  .00006770  00000-0  34337-3 0  9996
2 43017  97.5172  89.8836 0168627 322.4942  36.4614 15.05666262418248
S-Net D
1 43186U 18014G   25220.78581791  .00004860  00000-0  28402-3 0  9990
2 43186  97.5561 123.0780 0009720  29.3911 330.7865 15.12323099411475
S-Net B
1 43187U 18014H   25220.52734466  .00004202  00000-0  24622-3 0  9992
2 43187  97.5568 122.7970 0010281  25.0037 335.1689 15.12299024411435
S-Net A
1 43188U 18014J   25220.78599688  .00004808  00000-0  28092-3 0  9993
2 43188  97.5575 123.2108 0010182  24.9396 335.2324 15.12328559411476
S-Net C
1 43189U 18014K   25220.72839674  .00004271  00000-0  25013-3 0  9994
2 43189  97.5592 123.1783 0011407  16.6907 343.4697 15.12297478410019
Ten-Koh
1 43677U 18084G   25220.40538706  .00001767  00000-0  14417-3 0  9993
2 43677  98.0836  35.0291 0008718  72.2668 287.9506 15.00811329369216
PO-101
1 43678U 18084H   25220.82157295  .00001987  00000-0  17111-3 0  9998
2 43678  98.1055  39.2642 0008634  87.9414 272.2796 14.98557327369406
QO-100
1 43700U 18090A   25220.83311583  .00000146  00000-0  00000+0 0  9995
2 43700   0.0226 108.3412 0001240  28.7779 146.2032  1.00268203 24783
MinXSS-2
1 43758U 18099A   25219.72004647  .00014691  00000-0  55055-3 0  9997
2 43758  97.4990 285.9993 0009960 310.0244  50.0120 15.27321195365996
AO-95
1 43770U 18099N   25220.11955032  .00008183  00000-0  40332-3 0  9990
2 43770  97.4879 277.5687 0010306  13.9784 346.1733 15.18157099365581
SNUSat 2
1 43782U 18099AA  25220.38141905  .00005512  00000-0  29542-3 0  9991
2 43782  97.4558 274.0853 0010405 310.8093  49.2236 15.15349446365559
SnugLite
1 43784U 18099AC  25220.13662292  .00007400  00000-0  36202-3 0  9992
2 43784  97.4374 273.5323 0002031 328.6002  31.5111 15.18488703365678
ITASat 1
1 43786U 18099AE  25220.71967284  .00005003  00000-0  28179-3 0  9998
2 43786  97.4525 273.7461 0013894   5.3913 354.7466 15.13582454365555
EAGLET 1
1 43790U 18099AJ  25220.61767359  .00003658  00000-0  23195-3 0  9990
2 43790  97.4729 273.3977 0011427 351.4074   8.6958 15.09487329365121
ESEO
1 43792U 18099AL  25220.59777463  .00001632  00000-0  12616-3 0  9992
2 43792  97.4451 265.8277 0011010 322.8645  37.1818 15.02810130364830
CSIM
1 43793U 18099AM  25219.98276358  .03119869  24888-5  13726-2 0  9993
2 43793  97.4619 303.5279 0017490 277.1339  82.7962 16.22031966367068
JO-97
1 43803U 18099AX  25219.97601187  .00010559  00000-0  46525-3 0  9998
2 43803  97.4625 278.5534 0005788 300.5318  59.5346 15.21986785365801
Suomi 100
1 43804U 18099AY  25220.61628028  .00007753  00000-0  36930-3 0  9996
2 43804  97.4694 278.3067 0010553 301.2153  58.8047 15.19360154365812
ISAT
1 43879U 18111D   25220.76091126  .00020015  00000-0  64977-3 0  9990
2 43879  97.5908 136.5541 0007545   3.7523 356.3773 15.31957406360887
UWE-4
1 43880U 18111E   25220.18753033  .00012197  00000-0  45611-3 0  9996
2 43880  97.5853 134.0084 0011451  13.0649 347.0884 15.27425993362728
Sparrow
1 43881U 18111F   25220.49630426  .00018943  00000-0  58977-3 0  9995
2 43881  97.6063 139.4019 0007722  46.3312 313.8568 15.33308645362969
Prox-1
1 44339U 19036A   25220.74089084  .00010140  00000-0  12451-2 0  9994
2 44339  23.9975  26.3074 0007999  37.1146 322.9904 14.81007376327039
Taurus 1
1 44530U 19059C   25220.85193017  .00006087  00000-0  11082-2 0  9990
2 44530  98.6128   3.1493 0009210 202.0851 157.9956 14.66445802312774
Duchifat 3
1 44854U 19089C   25220.63870206  .00049203  00000-0  80255-3 0  9996
2 44854  36.9420 331.9897 0004962  78.3812 281.7503 15.51575950312264
TO-108
1 44881U 19093C   25220.83985919  .00000929  00000-0  11305-3 0  9993
2 44881  97.7898 295.2247 0014586  38.8202 321.4059 14.85706618305023
